• In Germany
  • List of Countries
  • For 7 days
  • Water Temperature
  • Satellite Maps
  • Weather Map
  • Weather Widgets
  • user-avatar
    Login

    Hourly Weather Shusha

    Today, 30 April, Sunday

    Time Temperature Precipitation Wind Pressure Humidity
    00:00 +5°C° 0 mm 1 mps 659 mmHg 91%
    01:00 +5°C° 0 mm 1 mps 658 mmHg 91%
    02:00 +5°C° 0 mm 1 mps 658 mmHg 91%
    03:00 +4°C° 0 mm 1 mps 658 mmHg 90%
    04:00 +6°C° 0 mm 1 mps 658 mmHg 86%
    05:00 +7°C° 0 mm 1 mps 659 mmHg 82%
    06:00 +8°C° 0 mm 1 mps 659 mmHg 78%
    07:00 +11°C° 0 mm 1 mps 660 mmHg 69%
    08:00 +13°C° 0 mm 2 mps 660 mmHg 60%
    09:00 +16°C° 0 mm 2 mps 661 mmHg 50%
    10:00 +17°C° 0.1 mm 2 mps 661 mmHg 48%
    11:00 +18°C° 0.1 mm 2 mps 661 mmHg 45%
    12:00 +19°C° 0.1 mm 3 mps 661 mmHg 42%
    13:00 +19°C° 0.1 mm 3 mps 661 mmHg 42%
    14:00 +19°C° 0.1 mm 2 mps 661 mmHg 42%
    15:00 +20°C° 0.1 mm 2 mps 661 mmHg 42%
    16:00 +18°C° 0.1 mm 2 mps 660 mmHg 49%
    17:00 +18°C° 0.1 mm 1 mps 660 mmHg 56%
    18:00 +16°C° 0.1 mm 1 mps 660 mmHg 63%
    19:00 +14°C° 0 mm 1 mps 659 mmHg 69%
    20:00 +11°C° 0 mm 1 mps 659 mmHg 75%
    21:00 +9°C° 0 mm 1 mps 659 mmHg 82%
    22:00 +9°C° 0 mm 1 mps 659 mmHg 81%
    23:00 +9°C° 0 mm 1 mps 659 mmHg 79%

    Tomorrow, 1 May, Monday

    Time Temperature Precipitation Wind Pressure Humidity
    00:00 +8°C° 0 mm 2 mps 659 mmHg 78%
    01:00 +8°C° 0 mm 2 mps 659 mmHg 77%
    02:00 +8°C° 0 mm 2 mps 659 mmHg 75%
    03:00 +7°C° 0 mm 2 mps 659 mmHg 74%
    04:00 +8°C° 0 mm 2 mps 659 mmHg 70%
    05:00 +9°C° 0 mm 2 mps 659 mmHg 66%
    06:00 +9°C° 0 mm 2 mps 659 mmHg 62%
    07:00 +13°C° 0 mm 2 mps 660 mmHg 54%
    08:00 +16°C° 0 mm 2 mps 661 mmHg 46%
    09:00 +19°C° 0 mm 2 mps 662 mmHg 38%
    10:00 +20°C° 0 mm 2 mps 662 mmHg 36%
    11:00 +21°C° 0 mm 2 mps 662 mmHg 35%
    12:00 +22°C° 0 mm 3 mps 662 mmHg 33%
    13:00 +22°C° 0 mm 3 mps 662 mmHg 33%
    14:00 +22°C° 0 mm 3 mps 661 mmHg 34%
    15:00 +22°C° 0 mm 3 mps 661 mmHg 34%
    16:00 +21°C° 0 mm 2 mps 661 mmHg 42%
    17:00 +19°C° 0 mm 2 mps 660 mmHg 50%
    18:00 +19°C° 0 mm 1 mps 660 mmHg 58%
    19:00 +15°C° 0 mm 1 mps 660 mmHg 66%
    20:00 +13°C° 0 mm 1 mps 660 mmHg 74%
    21:00 +11°C° 0 mm 1 mps 659 mmHg 82%
    22:00 +11°C° 0 mm 1 mps 659 mmHg 81%
    23:00 +11°C° 0 mm 1 mps 659 mmHg 80%

    Day after tomorrow, 2 May, Tuesday

    Time Temperature Precipitation Wind Pressure Humidity
    00:00 +11°C° 0 mm 1 mps 659 mmHg 79%
    01:00 +11°C° 0.1 mm 1 mps 659 mmHg 77%
    02:00 +11°C° 0.1 mm 1 mps 659 mmHg 76%
    03:00 +11°C° 0.1 mm 1 mps 659 mmHg 74%
    04:00 +12°C° 0 mm 1 mps 660 mmHg 73%
    05:00 +12°C° 0 mm 1 mps 660 mmHg 72%
    06:00 +12°C° 0 mm 1 mps 660 mmHg 70%
    07:00 +14°C° 0 mm 1 mps 660 mmHg 62%
    08:00 +16°C° 0 mm 2 mps 661 mmHg 54%
    09:00 +18°C° 0 mm 2 mps 662 mmHg 46%
    10:00 +19°C° 0 mm 2 mps 661 mmHg 43%
    11:00 +20°C° 0 mm 2 mps 661 mmHg 41%
    12:00 +21°C° 0 mm 3 mps 661 mmHg 39%
    13:00 +21°C° 0.2 mm 3 mps 661 mmHg 41%
    14:00 +21°C° 0.2 mm 2 mps 660 mmHg 42%
    15:00 +20°C° 0.2 mm 2 mps 660 mmHg 44%
    16:00 +19°C° 0.3 mm 2 mps 660 mmHg 51%
    17:00 +17°C° 0.3 mm 2 mps 659 mmHg 59%
    18:00 +16°C° 0.3 mm 1 mps 659 mmHg 66%
    19:00 +15°C° 0.7 mm 1 mps 659 mmHg 71%
    20:00 +14°C° 0.7 mm 2 mps 659 mmHg 76%
    21:00 +13°C° 0.7 mm 2 mps 659 mmHg 81%
    22:00 +12°C° 0.1 mm 1 mps 658 mmHg 81%
    23:00 +11°C° 0.1 mm 1 mps 658 mmHg 82%

    3 May, Wednesday

    Time Temperature Precipitation Wind Pressure Humidity
    00:00 +11°C° 0.1 mm 1 mps 657 mmHg 83%
    01:00 +10°C° 0 mm 1 mps 657 mmHg 83%
    02:00 +10°C° 0 mm 1 mps 657 mmHg 83%
    03:00 +10°C° 0 mm 1 mps 656 mmHg 82%
    04:00 +10°C° 0 mm 1 mps 657 mmHg 81%
    05:00 +11°C° 0 mm 1 mps 657 mmHg 79%
    06:00 +12°C° 0 mm 1 mps 657 mmHg 77%
    07:00 +14°C° 0 mm 1 mps 658 mmHg 67%
    08:00 +16°C° 0 mm 2 mps 658 mmHg 58%
    09:00 +18°C° 0 mm 2 mps 659 mmHg 49%
    10:00 +19°C° 0.1 mm 2 mps 659 mmHg 46%
    11:00 +20°C° 0.1 mm 2 mps 659 mmHg 43%
    12:00 +21°C° 0.1 mm 3 mps 659 mmHg 40%
    13:00 +21°C° 0.4 mm 3 mps 658 mmHg 40%
    14:00 +23°C° 0.4 mm 2 mps 658 mmHg 40%
    15:00 +23°C° 0.4 mm 2 mps 658 mmHg 40%
    16:00 +21°C° 0.1 mm 2 mps 658 mmHg 46%
    17:00 +19°C° 0.1 mm 2 mps 657 mmHg 52%
    18:00 +19°C° 0.1 mm 1 mps 657 mmHg 57%
    19:00 +16°C° 0.1 mm 1 mps 657 mmHg 63%
    20:00 +14°C° 0.1 mm 1 mps 657 mmHg 69%
    21:00 +12°C° 0.1 mm 1 mps 657 mmHg 75%
    22:00 +12°C° 0 mm 1 mps 656 mmHg 75%
    23:00 +12°C° 0 mm 1 mps 656 mmHg 74%

    4 May, Thursday

    Time Temperature Precipitation Wind Pressure Humidity
    00:00 +12°C° 0 mm 1 mps 656 mmHg 74%
    01:00 +11°C° 0.1 mm 1 mps 656 mmHg 73%
    02:00 +11°C° 0.1 mm 1 mps 656 mmHg 72%
    03:00 +11°C° 0.1 mm 1 mps 656 mmHg 72%
    04:00 +12°C° 0 mm 1 mps 656 mmHg 70%
    05:00 +12°C° 0 mm 1 mps 656 mmHg 69%
    06:00 +12°C° 0 mm 1 mps 657 mmHg 67%
    07:00 +14°C° 0 mm 1 mps 657 mmHg 60%
    08:00 +16°C° 0 mm 1 mps 658 mmHg 53%
    09:00 +18°C° 0 mm 2 mps 659 mmHg 46%
    10:00 +20°C° 0.2 mm 1 mps 659 mmHg 45%
    11:00 +20°C° 0.2 mm 1 mps 659 mmHg 43%
    12:00 +21°C° 0.2 mm 1 mps 659 mmHg 41%
    13:00 +21°C° 0.2 mm 1 mps 658 mmHg 41%
    14:00 +21°C° 0.2 mm 1 mps 658 mmHg 41%
    15:00 +22°C° 0.2 mm 1 mps 658 mmHg 41%
    16:00 +21°C° 0.2 mm 1 mps 658 mmHg 47%
    17:00 +20°C° 0.2 mm 1 mps 658 mmHg 53%
    18:00 +19°C° 0.2 mm 1 mps 658 mmHg 59%
    19:00 +15°C° 0.2 mm 1 mps 657 mmHg 65%
    20:00 +13°C° 0.2 mm 1 mps 657 mmHg 71%
    21:00 +11°C° 0.2 mm 1 mps 657 mmHg 78%
    22:00 +11°C° 0 mm 1 mps 657 mmHg 77%
    23:00 +11°C° 0 mm 1 mps 657 mmHg 76%

    5 May, Friday

    Time Temperature Precipitation Wind Pressure Humidity
    00:00 +10°C° 0 mm 2 mps 657 mmHg 74%
    01:00 +9°C° 0 mm 2 mps 657 mmHg 75%
    02:00 +9°C° 0 mm 2 mps 657 mmHg 76%
    03:00 +9°C° 0 mm 2 mps 657 mmHg 76%
    04:00 +9°C° 0 mm 2 mps 657 mmHg 74%
    05:00 +11°C° 0 mm 1 mps 658 mmHg 72%
    06:00 +12°C° 0 mm 1 mps 658 mmHg 70%
    07:00 +14°C° 0 mm 1 mps 659 mmHg 63%
    08:00 +16°C° 0 mm 2 mps 659 mmHg 57%
    09:00 +18°C° 0 mm 2 mps 660 mmHg 50%
    10:00 +19°C° 0.2 mm 2 mps 660 mmHg 49%
    11:00 +20°C° 0.2 mm 2 mps 660 mmHg 47%
    12:00 +21°C° 0.2 mm 2 mps 659 mmHg 46%
    13:00 +21°C° 0.8 mm 2 mps 659 mmHg 48%
    14:00 +20°C° 0.8 mm 2 mps 658 mmHg 50%
    15:00 +20°C° 0.8 mm 2 mps 658 mmHg 51%
    16:00 +19°C° 0.5 mm 2 mps 658 mmHg 57%
    17:00 +18°C° 0.5 mm 2 mps 658 mmHg 63%
    18:00 +17°C° 0.5 mm 2 mps 658 mmHg 68%
    19:00 +15°C° 0.3 mm 2 mps 657 mmHg 75%
    20:00 +13°C° 0.3 mm 1 mps 657 mmHg 82%
    21:00 +10°C° 0.3 mm 1 mps 657 mmHg 89%
    22:00 +10°C° 0 mm 1 mps 657 mmHg 89%
    23:00 +10°C° 0 mm 1 mps 657 mmHg 89%
    Show more